Ponca City, OK

2:37 AM CST on November 23, 2017 (GMT -0600)
Ponca City Municipal

Weather History for KPNC - October, 2013

Change the Weather History Date:

Friday, October 4, 2013

  Actual Average Record
Temperature  
Mean Temperature 76 °F -  
Max Temperature 89 °F 84 °F 96 °F (1951)
Min Temperature 61 °F 57 °F 34 °F (2014)
Cooling Degree Days 11    
Growing Degree Days 26 (Base 50)    
Moisture  
Dew Point 65 °F    
Average Humidity 69    
Maximum Humidity 90    
Minimum Humidity 45    
Precipitation  
Precipitation 0.31 in - - ()
Sea Level Pressure  
Sea Level Pressure 29.77 in    
Wind  
Wind Speed 14 mph (South)    
Max Wind Speed 18 mph    
Max Gust Speed 30 mph    
Visibility 10 miles    
Events Rain , Thunderstorm    
Averages and records for this station are not official NWS values.
T = Trace of Precipitation, MM = Missing Value Source: NWS Daily Summary

Daily Weather History Graph

Daily Weather History Graph

Search for Another Location

Airport or City:

Trip Planner

Search our weather history database for the weather conditions in past years. The results will help you decide how hot, cold, wet, or windy it might be!

Date:

Astronomy

Oct. 04, 2013 Rise Set
Actual Time 7:26 AM CDT 7:06 PM CDT
Civil Twilight 7:00 AM CDT 7:32 PM CDT
Nautical Twilight 6:30 AM CDT 8:02 PM CDT
Astronomical Twilight 6:00 AM CDT 8:32 PM CDT
Moon 7:02 AM CDT (10/4) 6:51 PM CDT (10/4)
Length of Visible Light 12h 32m
Length of Day
11h 40m
Waning Crescent, 0% of the Moon is Illuminated
Oct 4
Waning Crescent
Oct 4
New
Oct 11
First Quarter
Oct 18
Full
Oct 26
Last Quarter

Hourly Weather History & Observations

Time (CDT) Temp. Heat Index Dew Point Humidity Pressure Visibility Wind Dir Wind Speed Gust Speed Precip Events Conditions
12:53 AM 77.0 °F - 66.0 °F 69% 29.73 in 10.0 mi South 15.0 mph 26.5 mph N/A   Clear
1:53 AM 77.0 °F - 66.0 °F 69% 29.72 in 10.0 mi SSE 18.4 mph 27.6 mph N/A   Clear
2:53 AM 75.9 °F - 66.9 °F 74% 29.73 in 10.0 mi South 13.8 mph 24.2 mph N/A   Clear
3:53 AM 75.9 °F - 66.9 °F 74% 29.72 in 10.0 mi South 13.8 mph 23.0 mph N/A   Clear
4:53 AM 75.9 °F - 66.9 °F 74% 29.73 in 10.0 mi South 12.7 mph 24.2 mph N/A   Clear
5:53 AM 75.0 °F - 68.0 °F 79% 29.73 in 10.0 mi South 15.0 mph 26.5 mph N/A   Clear
6:53 AM 75.0 °F - 68.0 °F 79% 29.73 in 10.0 mi South 15.0 mph 23.0 mph N/A   Clear
7:53 AM 73.9 °F - 68.0 °F 82% 29.74 in 10.0 mi South 15.0 mph 26.5 mph N/A   Clear
8:53 AM 75.0 °F - 68.0 °F 79% 29.75 in 10.0 mi SSE 13.8 mph 24.2 mph N/A   Partly Cloudy
9:53 AM 75.9 °F - 68.0 °F 76% 29.76 in 10.0 mi South 13.8 mph 23.0 mph N/A   Partly Cloudy
10:53 AM 79.0 °F - 68.0 °F 69% 29.76 in 10.0 mi South 10.4 mph 25.3 mph N/A   Clear
11:53 AM 82.0 °F 84.9 °F 68.0 °F 62% 29.76 in 10.0 mi South 12.7 mph 21.9 mph N/A   Clear
12:53 PM 82.9 °F 85.4 °F 66.9 °F 58% 29.75 in 10.0 mi South 12.7 mph 23.0 mph N/A   Clear
1:53 PM 84.9 °F 87.1 °F 66.0 °F 53% 29.73 in 10.0 mi South 10.4 mph 23.0 mph N/A   Clear
2:53 PM 88.0 °F 89.6 °F 64.9 °F 46% 29.71 in 10.0 mi South 10.4 mph 21.9 mph N/A   Clear
3:53 PM 88.0 °F 89.3 °F 64.0 °F 45% 29.71 in 10.0 mi South 11.5 mph 21.9 mph N/A   Clear
4:53 PM 87.1 °F 88.3 °F 64.0 °F 46% 29.71 in 10.0 mi South 9.2 mph 19.6 mph N/A   Partly Cloudy
5:53 PM 86.0 °F 86.8 °F 63.0 °F 46% 29.70 in 10.0 mi South 13.8 mph 18.4 mph N/A   Clear
6:53 PM 82.0 °F 83.4 °F 64.0 °F 54% 29.73 in 10.0 mi South 5.8 mph - N/A   Clear
7:53 PM 79.0 °F - 63.0 °F 58% 29.77 in 10.0 mi Calm Calm - N/A   Partly Cloudy
8:38 PM 78.8 °F - 64.4 °F 61% 29.82 in 10.0 mi SE 8.1 mph - N/A Thunderstorm Overcast
8:53 PM 72.0 °F - 61.0 °F 68% 29.83 in 10.0 mi NW 17.3 mph 29.9 mph N/A Thunderstorm Overcast
9:08 PM 66.2 °F - 62.6 °F 88% 29.86 in 6.0 mi NNW 17.3 mph 26.5 mph 0.05 in Rain , Thunderstorm Rain
9:53 PM 64.9 °F - 62.1 °F 90% 29.85 in 3.0 mi North 11.5 mph - 0.25 in Rain , Thunderstorm Heavy Thunderstorms and Rain
10:29 PM 64.4 °F - 60.8 °F 88% 29.89 in 10.0 mi NNE 18.4 mph 23.0 mph 0.02 in Rain Light Rain
10:40 PM 64.4 °F - 60.8 °F 88% 29.92 in 10.0 mi NNW 10.4 mph 24.2 mph 0.03 in Rain , Thunderstorm Light Rain
10:53 PM 64.0 °F - 60.1 °F 87% 29.92 in 10.0 mi NNW 10.4 mph 16.1 mph 0.04 in Rain , Thunderstorm Light Thunderstorms and Rain
11:53 PM 61.0 °F - 50.0 °F 67% 29.94 in 10.0 mi North 17.3 mph 24.2 mph 0.02 in Rain Light Rain